Regional Weather Roundup
Issued by NWS New Orleans/Baton Rouge, LA

Home | Current Version | Previous Version | Text Only | Print | Product List | Glossary On
Versions: 1 2 3 4 5 6 7 8 9 10 11 12 13 14 15 16 17 18 19 20 21 22 23 24 25 26 27 28 29 30 31 32 33 34 35 36 37 38 39 40 41 42 43 44 45 46 47 48 49 50
000
ASUS44 KLIX 300710
RWRLIX
NEW ORLEANS REGIONAL WEATHER ROUNDUP
NATIONAL WEATHER SERVICE NEW ORLEANS LA
200 AM CDT WED JUL 30 2014

NOTE: "FAIR" INDICATES FEW OR NO CLOUDS BELOW 12,000 FEET WITH NO
      SIGNIFICANT WEATHER AND/OR OBSTRUCTIONS TO VISIBILITY.
      SKY/WX - SKY CONDITION AND SIGNIFICANT WEATHER.
      TMP - AIR TEMPERATURE.     DP    - DEWPOINT TEMPERATURE.
      RH  - RELATIVE HUMIDITY.   PRES  - PRESSURE.
      HI  - HEAT INDEX.          WCI   - WIND CHILL INDEX.

*  THESE STATIONS ARE NOT NWS OR FAA STATIONS AND ARE NOT UNDER
   NWS QUALITY CONTROL.

LAZ038-040-048-061>063-065>067-069-300800-
SOUTHEAST LOUISIANA

CITY           SKY/WX    TMP DP  RH WIND       PRES   REMARKS
N.O. AUDUBON     N/A     81  67  60 MISG        N/A
N.O. INTL ARPT PTCLDY    79  64  60 NE12      30.04F
N.O. LAKEFRONT CLEAR     80  68  66 NE20      30.04F
N.O. DOWNTOWN*   N/A     81  63  54 N5        30.04F
SLIDELL        CLEAR     71  67  87 N3        30.04F
BATON ROUGE    CLEAR     72  66  81 NE7       30.06S
BOOTHVILLE     CLEAR     76  71  85 NW3       30.02F
BELLE CHASSE   PTCLDY    77  65  66 NE8       30.03F
BOGALUSA*        N/A     69  64  84 CALM      30.07F
GALLIANO*      NOT AVBL
NEW ROADS*       N/A     73  65  77 NE6       30.06S
GONZALES*        N/A     73  71  93 CALM      30.04F
HAMMOND*       CLEAR     72  64  78 N3        30.07S
HOUMA*         MOCLDY    74  67  76 N7        30.03F
PORT FOURCHON* SUNNY     81  73  78 N3        30.03F

$$

MSZ070-080>082-300800-
SOUTHERN MISSISSIPPI

CITY           SKY/WX    TMP DP  RH WIND       PRES   REMARKS
MCCOMB         CLEAR     70  61  73 VRB3      30.07F
GULFPORT       CLEAR     77  65  66 N7        30.03S
BILOXI         CLEAR     75  65  71 NE12      30.03S
PASCAGOULA     MOCLDY    71  65  81 N7        30.03F

$$

COASTAL OBSERVATIONS
LAKE AND NEARSHORE STATIONS

STATION/POSITION TIME  TEMP    WIND        PRES    WAVE
                       AIR SEA DIR/SP/G            HT/PER
                 (UTC) (F)     (DEG/KT/KT) (MB)    (FT/S)
PASCAGOULA       0700   77      20/  9/ 13 1016.4
WAVELAND YACHT   0700   76      30/ 11/ 13 1016.5
GRAND ISLE       0700   83 86  350/  5/  6 1017.1
SOUTHWEST PASS   0700   83 84  350/  4/  5 1016.7
NEW CANAL        0700   81 84   40/ 19/ 21 1017.2
SHELL BEACH      0700   81 81   40/ 18/ 21 1016.6

OFFSHORE STATIONS

STATION/POSITION TIME  TEMP    WIND        PRES    WAVE
                       AIR SEA DIR/SP/G            HT/PER
                 (UTC) (F)     (DEG/KT/KT) (MB)    (FT/S)
64 S DAUPHIN ISL 0553   83 85  290/  6/  8 1016.3

$$



USA.gov is the U.S. government's official web portal to all federal, state and local government web resources and services.